Location: Black Swamp Observatory
(41.3920°N, 84.1250°W)
Time: 04:58:48
(UTC-04:00)

Courier 1B Rocket - Pass Details

Date: 22 January 2022
Orbit: 920 x 1202 km, 28.2° (Epoch: 28 May)

Event Time Altitude Azimuth Distance (km) Brightness Sun altitude
Exits shadow 06:39:43 - 241° (WSW) 2,808 7.0 -14.3°
Reaches altitude 10° 06:40:05 10° 239° (WSW) 2,713 6.9 -14.3°
Maximum altitude 06:44:38 20° 194° (SSW) 2,031 6.7 -13.5°
Drops below altitude 10° 06:49:02 10° 149° (SSE) 2,621 7.9 -12.7°
Sets 06:52:18 0° 133° (SE) 3,547 9.2 -12.1°
